RYR44BM EBCI-EIDW

Flight info

Callsign RYR44BM
Flight time 1h 20m
Altitude 38000
Route CIV UY50 LUMEN L610 KOPUL Q60 OKSAW DCT LANON DCT ABLIN ABLIN4L
Aircraft A20N/M-SDE2E3FGHIRWXY/LB1

Departure

Time 2026-05-04 18:58
Airport Brussels South Charleroi Airport (EBCI)

Arrival

Time 2026-05-04 20:18
Airport Dublin Airport (EIDW)
Time Latitude Longitude Altitude Speed Heading
2026-05-04 18:18 50.46875 4.47096 574 ft 0 kts 336°
2026-05-04 18:49 50.46867 4.47101 582 ft 2 kts 321°
2026-05-04 18:50 50.46855 4.47117 581 ft 2 kts 327°
2026-05-04 18:50 50.46841 4.47130 582 ft 2 kts 335°
2026-05-04 18:50 50.46826 4.47139 581 ft 2 kts 352°
2026-05-04 18:50 50.46809 4.47140 583 ft 2 kts 15°
2026-05-04 18:51 50.46800 4.47135 579 ft 0 kts 33°
2026-05-04 18:54 50.46803 4.47140 583 ft 1 kts 41°
2026-05-04 18:55 50.46812 4.47159 580 ft 3 kts 57°
2026-05-04 18:55 50.46851 4.47305 581 ft 11 kts 65°
2026-05-04 18:55 50.46887 4.47426 579 ft 3 kts 66°
2026-05-04 18:56 50.46908 4.47500 581 ft 11 kts 66°
2026-05-04 18:56 50.46891 4.47594 580 ft 6 kts 135°
2026-05-04 18:56 50.46835 4.47641 582 ft 8 kts 157°
2026-05-04 18:56 50.46751 4.47698 578 ft 16 kts 157°
2026-05-04 18:57 50.46685 4.47682 576 ft 1 kts 221°
2026-05-04 18:57 50.46665 4.47633 576 ft 9 kts 242°
2026-05-04 18:57 50.46551 4.47242 587 ft 82 kts 245°
2026-05-04 18:57 50.46211 4.46073 607 ft 150 kts 245°
2026-05-04 18:58 50.45720 4.44351 954 ft 182 kts 246°
2026-05-04 18:58 50.45239 4.42519 1951 ft 181 kts 249°
2026-05-04 18:58 50.44731 4.40718 2961 ft 182 kts 245°
2026-05-04 18:58 50.44148 4.38937 3710 ft 188 kts 244°
2026-05-04 18:59 50.43524 4.36946 4009 ft 220 kts 245°
2026-05-04 18:59 50.42858 4.34652 3992 ft 242 kts 247°
2026-05-04 18:59 50.42168 4.32190 3994 ft 247 kts 247°
2026-05-04 18:59 50.41481 4.29719 3992 ft 250 kts 247°
2026-05-04 19:00 50.40889 4.27020 3996 ft 268 kts 264°
2026-05-04 19:00 50.41074 4.24155 3984 ft 266 kts 292°
2026-05-04 19:00 50.41988 4.21639 4181 ft 268 kts 304°
2026-05-04 19:00 50.43012 4.19186 4991 ft 269 kts 304°
2026-05-04 19:01 50.44033 4.16727 6073 ft 270 kts 304°
2026-05-04 19:01 50.45058 4.14223 7022 ft 275 kts 303°
2026-05-04 19:01 50.46087 4.11677 7948 ft 278 kts 303°
2026-05-04 19:01 50.47122 4.09098 8908 ft 281 kts 303°
2026-05-04 19:02 50.48172 4.06474 9865 ft 285 kts 303°
2026-05-04 19:02 50.49244 4.03792 10503 ft 300 kts 303°
2026-05-04 19:02 50.50400 4.00902 10830 ft 324 kts 303°
2026-05-04 19:02 50.51630 3.97825 11309 ft 339 kts 303°
2026-05-04 19:03 50.52886 3.94673 12127 ft 343 kts 303°
2026-05-04 19:03 50.54155 3.91483 12960 ft 347 kts 303°
2026-05-04 19:03 50.55450 3.88227 13784 ft 352 kts 303°
2026-05-04 19:03 50.56902 3.85121 14486 ft 355 kts 315°
2026-05-04 19:04 50.58835 3.82698 15186 ft 359 kts 330°
2026-05-04 19:04 50.61134 3.81114 15872 ft 362 kts 341°
2026-05-04 19:04 50.63520 3.79759 16562 ft 367 kts 341°
2026-05-04 19:04 50.65935 3.78382 17253 ft 372 kts 341°
2026-05-04 19:05 50.68380 3.76980 17953 ft 376 kts 340°
2026-05-04 19:05 50.70885 3.75538 18611 ft 379 kts 340°
2026-05-04 19:05 50.73338 3.74120 19213 ft 383 kts 340°
2026-05-04 19:05 50.75855 3.72665 19810 ft 387 kts 340°
2026-05-04 19:06 50.78388 3.71197 20381 ft 391 kts 340°
2026-05-04 19:06 50.80960 3.69705 20969 ft 395 kts 340°
2026-05-04 19:06 50.83549 3.68201 21546 ft 399 kts 340°
2026-05-04 19:06 50.86175 3.66674 22099 ft 403 kts 339°
2026-05-04 19:07 50.88822 3.65133 22650 ft 408 kts 339°
2026-05-04 19:07 50.91489 3.63578 23227 ft 411 kts 339°
2026-05-04 19:07 50.94176 3.61939 23729 ft 415 kts 337°
2026-05-04 19:07 50.96867 3.60198 24224 ft 418 kts 336°
2026-05-04 19:08 50.99556 3.58438 24697 ft 421 kts 336°
2026-05-04 19:08 51.02286 3.56658 25148 ft 425 kts 336°
2026-05-04 19:08 51.05031 3.54876 25601 ft 427 kts 336°
2026-05-04 19:08 51.07788 3.53093 26077 ft 430 kts 337°
2026-05-04 19:09 51.10568 3.51297 26480 ft 434 kts 337°
2026-05-04 19:09 51.13384 3.49477 26916 ft 437 kts 337°
2026-05-04 19:09 51.16213 3.47645 27308 ft 440 kts 337°
2026-05-04 19:09 51.19058 3.45801 27718 ft 443 kts 336°
2026-05-04 19:10 51.21893 3.43818 28085 ft 446 kts 330°
2026-05-04 19:10 51.24434 3.41001 28429 ft 446 kts 316°
2026-05-04 19:10 51.26434 3.37528 28765 ft 446 kts 304°
2026-05-04 19:10 51.27984 3.33253 29098 ft 446 kts 291°
2026-05-04 19:11 51.28909 3.28555 29429 ft 445 kts 279°
2026-05-04 19:11 51.29460 3.23674 29766 ft 447 kts 276°
2026-05-04 19:11 51.29947 3.18771 30099 ft 449 kts 277°
2026-05-04 19:11 51.30472 3.13830 30458 ft 451 kts 277°
2026-05-04 19:12 51.31042 3.08904 30831 ft 452 kts 278°
2026-05-04 19:12 51.32259 2.99051 31668 ft 450 kts 278°
2026-05-04 19:12 51.32873 2.94163 32155 ft 448 kts 278°
2026-05-04 19:13 51.33493 2.89227 32630 ft 445 kts 278°
2026-05-04 19:13 51.34097 2.84393 33087 ft 443 kts 278°
2026-05-04 19:13 51.34696 2.79576 33525 ft 441 kts 278°
2026-05-04 19:13 51.35291 2.74768 33948 ft 439 kts 278°
2026-05-04 19:14 51.35884 2.69970 34269 ft 438 kts 278°
2026-05-04 19:14 51.36475 2.65178 34520 ft 439 kts 278°
2026-05-04 19:14 51.37064 2.60389 34778 ft 439 kts 278°
2026-05-04 19:14 51.37652 2.55587 35029 ft 440 kts 278°
2026-05-04 19:15 51.38238 2.50784 35268 ft 440 kts 278°
2026-05-04 19:15 51.38823 2.45981 35516 ft 440 kts 278°
2026-05-04 19:15 51.39406 2.41169 35755 ft 440 kts 278°
2026-05-04 19:15 51.39988 2.36349 35987 ft 441 kts 278°
2026-05-04 19:16 51.40567 2.31535 36207 ft 441 kts 278°
2026-05-04 19:16 51.41145 2.26710 36427 ft 441 kts 278°
2026-05-04 19:16 51.41727 2.21885 36646 ft 441 kts 278°
2026-05-04 19:16 51.42310 2.17117 36847 ft 442 kts 278°
2026-05-04 19:17 51.42901 2.12292 37057 ft 442 kts 278°
2026-05-04 19:17 51.43490 2.07457 37263 ft 442 kts 278°
2026-05-04 19:17 51.44077 2.02621 37452 ft 442 kts 278°
2026-05-04 19:17 51.44659 1.97783 37638 ft 442 kts 278°
2026-05-04 19:18 51.45230 1.92935 37837 ft 442 kts 278°
2026-05-04 19:18 51.45793 1.88095 37996 ft 443 kts 278°
2026-05-04 19:18 51.46355 1.83239 38011 ft 443 kts 278°
2026-05-04 19:19 51.47478 1.73553 38013 ft 441 kts 278°
2026-05-04 19:19 51.48596 1.63857 38020 ft 442 kts 278°
2026-05-04 19:20 51.49703 1.54165 38022 ft 442 kts 278°
2026-05-04 19:20 51.50800 1.44459 38021 ft 442 kts 278°
2026-05-04 19:21 51.51889 1.34747 38023 ft 442 kts 278°
2026-05-04 19:21 51.52972 1.25024 38026 ft 442 kts 278°
2026-05-04 19:22 51.54045 1.15296 38028 ft 442 kts 277°
2026-05-04 19:22 51.54637 1.07171 38028 ft 441 kts 274°
2026-05-04 19:23 51.55263 0.97364 38020 ft 441 kts 274°
2026-05-04 19:23 51.55888 0.87556 38021 ft 441 kts 274°
2026-05-04 19:24 51.56501 0.77743 38018 ft 441 kts 274°
2026-05-04 19:24 51.57104 0.67929 38020 ft 441 kts 274°
2026-05-04 19:25 51.57699 0.58110 38020 ft 441 kts 274°
2026-05-04 19:25 51.58290 0.48226 38021 ft 442 kts 274°
2026-05-04 19:26 51.58866 0.38458 38018 ft 442 kts 274°
2026-05-04 19:26 51.59441 0.28556 38019 ft 442 kts 274°
2026-05-04 19:27 51.60004 0.18714 38022 ft 442 kts 274°
2026-05-04 19:27 51.60559 0.08858 38018 ft 443 kts 274°
2026-05-04 19:28 51.61099 -0.00869 38021 ft 443 kts 274°
2026-05-04 19:28 51.61639 -0.10745 38041 ft 443 kts 274°
2026-05-04 19:29 51.62221 -0.20620 38045 ft 444 kts 274°
2026-05-04 19:29 51.62841 -0.30476 38045 ft 444 kts 274°
2026-05-04 19:30 51.63447 -0.40391 38017 ft 444 kts 274°
2026-05-04 19:30 51.64038 -0.50301 38015 ft 445 kts 274°
2026-05-04 19:31 51.64619 -0.60212 38023 ft 445 kts 274°
2026-05-04 19:31 51.65195 -0.70156 38030 ft 446 kts 274°
2026-05-04 19:32 51.65761 -0.80102 38029 ft 446 kts 274°
2026-05-04 19:32 51.66320 -0.90050 38018 ft 447 kts 274°
2026-05-04 19:33 51.66871 -1.00033 38019 ft 447 kts 274°
2026-05-04 19:33 51.67414 -1.10009 38021 ft 447 kts 274°
2026-05-04 19:34 51.67949 -1.20001 38025 ft 448 kts 274°
2026-05-04 19:34 51.68476 -1.29999 38019 ft 448 kts 274°
2026-05-04 19:35 51.68995 -1.39999 38030 ft 448 kts 274°
2026-05-04 19:35 51.69505 -1.50026 38017 ft 449 kts 274°
2026-05-04 19:36 51.70015 -1.60039 38030 ft 449 kts 275°
2026-05-04 19:36 51.71219 -1.69920 38032 ft 450 kts 285°
2026-05-04 19:37 51.73500 -1.79338 38030 ft 452 kts 294°
2026-05-04 19:37 51.76136 -1.88551 38036 ft 452 kts 294°
2026-05-04 19:38 51.78748 -1.97777 38038 ft 452 kts 293°
2026-05-04 19:38 51.81357 -2.07023 38020 ft 452 kts 293°
2026-05-04 19:39 51.83962 -2.16284 38020 ft 453 kts 293°
2026-05-04 19:39 51.86562 -2.25562 38028 ft 453 kts 293°
2026-05-04 19:40 51.89153 -2.34846 38029 ft 453 kts 293°
2026-05-04 19:40 51.91736 -2.44143 38025 ft 453 kts 293°
2026-05-04 19:41 51.94313 -2.53449 38031 ft 453 kts 293°
2026-05-04 19:41 51.96880 -2.62762 38040 ft 453 kts 293°
2026-05-04 19:42 51.99443 -2.72093 38040 ft 452 kts 293°
2026-05-04 19:42 52.01992 -2.81412 38042 ft 452 kts 294°
2026-05-04 19:43 52.04536 -2.90751 38033 ft 452 kts 294°
2026-05-04 19:43 52.07072 -3.00098 38036 ft 452 kts 294°
2026-05-04 19:44 52.09601 -3.09458 38042 ft 452 kts 294°
2026-05-04 19:44 52.12121 -3.18822 38035 ft 452 kts 294°
2026-05-04 19:45 52.14635 -3.28202 38023 ft 452 kts 294°
2026-05-04 19:45 52.15888 -3.32890 37832 ft 453 kts 294°
2026-05-04 19:45 52.17143 -3.37598 37569 ft 452 kts 294°
2026-05-04 19:45 52.18391 -3.42289 37306 ft 451 kts 294°
2026-05-04 19:46 52.19637 -3.46981 36930 ft 453 kts 294°
2026-05-04 19:46 52.20894 -3.51724 36215 ft 457 kts 294°
2026-05-04 19:46 52.22032 -3.56031 35612 ft 457 kts 294°
2026-05-04 19:46 52.23041 -3.59853 35081 ft 457 kts 294°
2026-05-04 19:47 52.24276 -3.64545 34415 ft 457 kts 294°
2026-05-04 19:47 52.25533 -3.69333 33585 ft 460 kts 294°
2026-05-04 19:47 52.26788 -3.74125 32835 ft 459 kts 294°
2026-05-04 19:47 52.28043 -3.78924 32050 ft 459 kts 294°
2026-05-04 19:48 52.29276 -3.83648 31299 ft 460 kts 294°
2026-05-04 19:48 52.30544 -3.88513 30771 ft 458 kts 294°
2026-05-04 19:48 52.31796 -3.93322 30200 ft 459 kts 295°
2026-05-04 19:48 52.33040 -3.98113 29576 ft 456 kts 295°
2026-05-04 19:49 52.34268 -4.02850 29019 ft 450 kts 294°
2026-05-04 19:49 52.35480 -4.07534 28470 ft 444 kts 294°
2026-05-04 19:49 52.36677 -4.12167 27903 ft 439 kts 294°
2026-05-04 19:49 52.37855 -4.16737 27361 ft 434 kts 294°
2026-05-04 19:50 52.39020 -4.21264 26818 ft 429 kts 294°
2026-05-04 19:50 52.40171 -4.25748 26282 ft 425 kts 294°
2026-05-04 19:50 52.41310 -4.30194 25744 ft 421 kts 294°
2026-05-04 19:50 52.42518 -4.34533 25218 ft 416 kts 300°
2026-05-04 19:51 52.44053 -4.38513 24691 ft 411 kts 308°
2026-05-04 19:51 52.45879 -4.42083 24169 ft 407 kts 315°
2026-05-04 19:51 52.47818 -4.45440 23648 ft 404 kts 314°
2026-05-04 19:51 52.49735 -4.48788 23073 ft 400 kts 314°
2026-05-04 19:52 52.51624 -4.52098 22564 ft 395 kts 314°
2026-05-04 19:52 52.53489 -4.55374 22052 ft 391 kts 314°
2026-05-04 19:52 52.55334 -4.58616 21547 ft 387 kts 314°
2026-05-04 19:52 52.57185 -4.61870 21033 ft 383 kts 314°
2026-05-04 19:53 52.59000 -4.65065 20530 ft 379 kts 314°
2026-05-04 19:53 52.60792 -4.68222 20034 ft 376 kts 314°
2026-05-04 19:53 52.62571 -4.71358 19538 ft 374 kts 314°
2026-05-04 19:53 52.64340 -4.74481 19033 ft 371 kts 313°
2026-05-04 19:54 52.66095 -4.77580 18548 ft 369 kts 313°
2026-05-04 19:54 52.67837 -4.80662 18019 ft 367 kts 313°
2026-05-04 19:54 52.69563 -4.83724 17534 ft 363 kts 313°
2026-05-04 19:54 52.71271 -4.86755 17056 ft 359 kts 313°
2026-05-04 19:55 52.72961 -4.89763 16572 ft 355 kts 313°
2026-05-04 19:55 52.74633 -4.92741 16085 ft 352 kts 313°
2026-05-04 19:55 52.76293 -4.95698 15623 ft 349 kts 313°
2026-05-04 19:55 52.77936 -4.98629 15189 ft 346 kts 313°
2026-05-04 19:56 52.79604 -5.01609 15061 ft 361 kts 313°
2026-05-04 19:56 52.81318 -5.04673 15012 ft 363 kts 313°
2026-05-04 19:56 52.83031 -5.07734 14684 ft 364 kts 313°
2026-05-04 19:56 52.84753 -5.10816 14076 ft 367 kts 313°
2026-05-04 19:57 52.86465 -5.13886 13809 ft 356 kts 313°
2026-05-04 19:57 52.88112 -5.16845 13664 ft 342 kts 313°
2026-05-04 19:57 52.89691 -5.19689 13533 ft 328 kts 313°
2026-05-04 19:57 52.91202 -5.22415 13403 ft 315 kts 312°
2026-05-04 19:58 52.92655 -5.25037 13211 ft 305 kts 312°
2026-05-04 19:58 52.94088 -5.27627 12754 ft 304 kts 312°
2026-05-04 19:58 52.95512 -5.30201 12343 ft 302 kts 312°
2026-05-04 19:58 52.96924 -5.32758 11950 ft 299 kts 312°
2026-05-04 19:59 52.98323 -5.35292 11565 ft 297 kts 312°
2026-05-04 19:59 52.99713 -5.37813 11175 ft 294 kts 312°
2026-05-04 19:59 53.01084 -5.40304 10882 ft 289 kts 312°
2026-05-04 19:59 53.02411 -5.42720 10736 ft 278 kts 312°
2026-05-04 20:00 53.03710 -5.45091 10356 ft 277 kts 312°
2026-05-04 20:00 53.04571 -5.46661 10111 ft 277 kts 312°
2026-05-04 20:00 53.06341 -5.49732 9608 ft 274 kts 319°
2026-05-04 20:00 53.07336 -5.51004 9355 ft 272 kts 326°
2026-05-04 20:01 53.08940 -5.52666 8954 ft 271 kts 327°
2026-05-04 20:01 53.10533 -5.54327 8578 ft 269 kts 327°
2026-05-04 20:01 53.12110 -5.55986 8201 ft 267 kts 327°
2026-05-04 20:01 53.13676 -5.57638 7836 ft 266 kts 326°
2026-05-04 20:02 53.15228 -5.59275 7479 ft 264 kts 326°
2026-05-04 20:02 53.16773 -5.60907 7171 ft 260 kts 326°
2026-05-04 20:02 53.18291 -5.62463 7083 ft 256 kts 333°
2026-05-04 20:02 53.20033 -5.63085 7085 ft 262 kts
2026-05-04 20:03 53.21781 -5.62240 7089 ft 266 kts 27°
2026-05-04 20:03 53.23302 -5.60468 7086 ft 268 kts 37°
2026-05-04 20:03 53.24725 -5.58461 7083 ft 268 kts 39°
2026-05-04 20:03 53.26150 -5.56458 7085 ft 268 kts 37°
2026-05-04 20:04 53.27602 -5.54515 7084 ft 268 kts 36°
2026-05-04 20:04 53.29166 -5.52874 7086 ft 265 kts 21°
2026-05-04 20:04 53.30919 -5.51998 7087 ft 264 kts
2026-05-04 20:04 53.32716 -5.51360 7087 ft 263 kts 10°
2026-05-04 20:05 53.34506 -5.50703 7086 ft 263 kts 10°
2026-05-04 20:05 53.36291 -5.50039 7090 ft 263 kts 10°
2026-05-04 20:05 53.38081 -5.49369 7086 ft 263 kts 10°
2026-05-04 20:05 53.39873 -5.48861 7087 ft 261 kts
2026-05-04 20:06 53.41673 -5.49102 7091 ft 259 kts 346°
2026-05-04 20:06 53.43433 -5.49733 7090 ft 259 kts 346°
2026-05-04 20:06 53.45199 -5.50343 7089 ft 259 kts 346°
2026-05-04 20:06 53.46968 -5.50943 7092 ft 258 kts 347°
2026-05-04 20:07 53.48732 -5.51538 7090 ft 259 kts 347°
2026-05-04 20:07 53.50492 -5.52174 7087 ft 257 kts 341°
2026-05-04 20:07 53.52121 -5.53376 7093 ft 256 kts 327°
2026-05-04 20:07 53.53573 -5.55105 7093 ft 256 kts 322°
2026-05-04 20:08 53.55013 -5.56851 7092 ft 255 kts 323°
2026-05-04 20:08 53.56460 -5.58586 7096 ft 255 kts 323°
2026-05-04 20:08 53.57854 -5.60422 7074 ft 254 kts 310°
2026-05-04 20:08 53.58657 -5.62990 7074 ft 250 kts 282°
2026-05-04 20:09 53.58602 -5.65844 7006 ft 242 kts 253°
2026-05-04 20:09 53.57724 -5.68196 6807 ft 240 kts 225°
2026-05-04 20:09 53.56403 -5.69952 6330 ft 244 kts 218°
2026-05-04 20:09 53.56051 -5.70367 6198 ft 245 kts 217°
2026-05-04 20:10 53.54667 -5.71978 5936 ft 237 kts 218°
2026-05-04 20:10 53.53344 -5.73587 5684 ft 237 kts 219°
2026-05-04 20:10 53.52046 -5.75260 5421 ft 233 kts 221°
2026-05-04 20:10 53.50781 -5.76953 5158 ft 232 kts 221°
2026-05-04 20:11 53.49540 -5.78644 4928 ft 225 kts 222°
2026-05-04 20:11 53.48366 -5.80250 4743 ft 212 kts 222°
2026-05-04 20:11 53.47306 -5.81930 4334 ft 208 kts 231°
2026-05-04 20:11 53.46341 -5.83710 4158 ft 212 kts 230°
2026-05-04 20:12 53.45335 -5.85535 3961 ft 212 kts 230°
2026-05-04 20:12 53.44333 -5.87338 3725 ft 213 kts 230°
2026-05-04 20:12 53.43323 -5.89146 3545 ft 204 kts 230°
2026-05-04 20:12 53.42360 -5.90867 3168 ft 206 kts 230°
2026-05-04 20:13 53.41364 -5.92659 3008 ft 212 kts 229°
2026-05-04 20:13 53.40549 -5.94610 2989 ft 192 kts 254°
2026-05-04 20:13 53.40414 -5.96639 2993 ft 163 kts 278°
2026-05-04 20:13 53.40531 -5.98367 2990 ft 136 kts 282°
2026-05-04 20:14 53.40647 -5.99928 2995 ft 136 kts 281°
2026-05-04 20:14 53.40746 -6.01494 2992 ft 135 kts 279°
2026-05-04 20:14 53.40830 -6.03066 2902 ft 135 kts 279°
2026-05-04 20:14 53.40915 -6.04635 2689 ft 134 kts 280°
2026-05-04 20:15 53.41001 -6.06188 2497 ft 134 kts 279°
2026-05-04 20:15 53.41082 -6.07749 2318 ft 135 kts 278°
2026-05-04 20:15 53.41172 -6.09315 2117 ft 135 kts 279°
2026-05-04 20:15 53.41259 -6.10875 1922 ft 134 kts 279°
2026-05-04 20:16 53.41345 -6.12431 1743 ft 133 kts 279°
2026-05-04 20:16 53.41425 -6.13977 1553 ft 134 kts 278°
2026-05-04 20:16 53.41515 -6.15529 1370 ft 134 kts 278°
2026-05-04 20:16 53.41596 -6.17081 1187 ft 134 kts 278°
2026-05-04 20:17 53.41672 -6.18640 1001 ft 135 kts 277°
2026-05-04 20:17 53.41761 -6.20178 816 ft 134 kts 276°
2026-05-04 20:17 53.41846 -6.21733 635 ft 133 kts 274°
2026-05-04 20:17 53.41927 -6.23281 458 ft 133 kts 274°
2026-05-04 20:18 53.42004 -6.24815 309 ft 133 kts 274°
2026-05-04 20:18 53.42094 -6.26325 225 ft 118 kts 272°
2026-05-04 20:18 53.42139 -6.27188 227 ft 32 kts 276°
2026-05-04 20:18 53.42165 -6.27575 229 ft 36 kts 274°
2026-05-04 20:19 53.42242 -6.27966 231 ft 33 kts 299°
2026-05-04 20:19 53.42279 -6.28075 227 ft 0 kts 300°
2026-05-04 20:19 53.42284 -6.28087 227 ft 5 kts 303°
2026-05-04 20:19 53.42333 -6.28127 225 ft 11 kts
2026-05-04 20:20 53.42366 -6.28074 225 ft 3 kts 90°
2026-05-04 20:20 53.42364 -6.27999 227 ft 9 kts 94°
2026-05-04 20:20 53.42354 -6.27864 225 ft 14 kts 98°
2026-05-04 20:20 53.42343 -6.27675 225 ft 18 kts 94°
2026-05-04 20:21 53.42327 -6.27435 225 ft 22 kts 92°
2026-05-04 20:21 53.42315 -6.27160 225 ft 25 kts 94°
2026-05-04 20:21 53.42280 -6.26507 225 ft 31 kts 95°
2026-05-04 20:22 53.42263 -6.26142 226 ft 33 kts 93°
2026-05-04 20:22 53.42358 -6.25809 224 ft 34 kts 44°
2026-05-04 20:22 53.42530 -6.25516 223 ft 36 kts 46°
2026-05-04 20:22 53.42703 -6.25214 224 ft 24 kts 48°
2026-05-04 20:23 53.42809 -6.25041 224 ft 23 kts 37°
2026-05-04 20:23 53.42914 -6.24899 224 ft 11 kts 27°
2026-05-04 20:23 53.42994 -6.24879 224 ft 3 kts
2026-05-04 20:23 53.43001 -6.24877 225 ft 3 kts 10°
2026-05-04 20:24 53.43009 -6.24874 225 ft 0 kts